Hourly Data Report for May 30, 2021

TOBERMORY RCS
ONTARIO
Current Station Operator: ECCC - MSC

45°14'00.000" N
81°38'00.000" W
213.50 m
6128330
71767
TTR

Download Data

Hourly Data (May 2021)
Hourly Data Report for May 30, 2021
TIME
LST
Temp Definition
°C
Dew Point Definition
°C
Rel Hum Definition
%
Precip. Amount Definition
mm

Wind Dir Definition
10's deg

Wind Spd Definition
km/h
Visibility Definition
km
Stn Press Definition
kPa
Hmdx Definition


Wind Chill Definition


Weather Definition


00:00 7.4 0.9 63 0.0 34 7   99.92     LegendNANA
01:00 8.0 -0.2 56 0.0 34 8   99.92     LegendNANA
02:00 7.3 0.0 60 0.0 35 8   99.92     LegendNANA
03:00 5.0 0.2 71 0.0 36 4   99.91     LegendNANA
04:00 4.3 1.3 81 0.0 2 5   99.92     LegendNANA
05:00 5.1 1.3 76 0.0 5 5   99.93     LegendNANA
06:00 6.9 2.5 73 0.0 3 4   99.97     LegendNANA
07:00 10.2 3.5 63 0.0 3 7   100.01     LegendNANA
08:00 13.5 5.0 56 0.0 6 3   100.04     LegendNANA
09:00 16.1 0.9 36 0.0 6 6   100.05     LegendNANA
10:00 17.1 -1.2 29 0.0 5 8   100.00     LegendNANA
11:00 16.1 3.1 42 0.0 25 10   99.98     LegendNANA
12:00 17.4 4.5 42 0.0 23 10   99.98     LegendNANA
13:00 17.3 -2.0 27 0.0 22 11   99.97     LegendNANA
14:00 16.7 3.8 42 0.0 28 15   99.96     LegendNANA
15:00 16.2 -3.5 26 0.0 32 9   99.90     LegendNANA
16:00 16.7 -2.4 27 0.0 28 14   99.89     LegendNANA
17:00 15.9 -3.1 27 0.0 32 10   99.87     LegendNANA
18:00 17.0 -2.0 27 0.0 28 5   99.81     LegendNANA
19:00 15.8 -2.5 28 0.0 33 4   99.80     LegendNANA
20:00 10.5 0.3 49 0.0 30 4   99.83     LegendNANA
21:00 7.3 0.8 63 0.0   0   99.84     LegendNANA
22:00 6.2 1.8 73 0.0   0   99.84     LegendNANA
23:00 5.6 1.0 72 0.0 18 2   99.83     LegendNANA

Notes on Data Quality.

Legend

  • E = Estimated
  • M = Missing
  • NA = Not Available*
  • [empty] = Indicates an unobserved value
Date modified: